Skip Page Navigation
NASA JPL Caltech
NASA Logo - Jet Propulsion Laboratory + View the NASA Portal
+ Near-Earth Object (NEO) Program
Search JPL
JPL Home Earth Solar System Stars & Galaxies Technology
JPL Solar System Dynamics
BODIES ORBITS EPHEMERIDES TOOLS PHYSICAL DATA DISCOVERY FAQ SITE MAP
JPL Small-Body Database Browser
Search: [ help ]  
15941 Stevegauthier (1997 YX15)
Classification: Main-belt Asteroid          SPK-ID: 2015941
Ephemeris | Orbit Diagram | Orbital Elements | Physical Parameters | Discovery Circumstances ]

[ hide orbit diagram ]
Orbit Diagram
Note: Make sure you have Java enabled on your browser to see the applet. This applet is provided as a 3D orbit visualization tool. The applet was implemented using 2-body methods, and hence should not be used for determining accurate long-term trajectories (over several years or decades) or planetary encounter circumstances. For accurate long-term ephemerides, please instead use our Horizons system.
Orbit Viewer

Additional Notes: the orbits shown in the applet are color coded. The planets are white lines, and the asteroid/comet is a blue line. The bright white line indicates the portion of the orbit that is above the ecliptic plane, and the darker portion is below the ecliptic plane. Likewise for the asteroid/comet orbit, the light blue indicates the portion above the ecliptic plane, and the dark blue the portion below the ecliptic plane.

Orbit Viewer applet originally written and kindly provided by Osamu Ajiki (AstroArts), and further modified by Ron Baalke (JPL).


Orbital Elements at Epoch 2456400.5 (2013-Apr-18.0) TDB
Reference: MPO256980 (heliocentric ecliptic J2000)
 Element Value Uncertainty (1-sigma)   Units 
e 0.1095784 n/a  
a 3.0470806 n/a AU
q 2.7131864 n/a AU
i 14.40820 n/a deg
node 294.47592 n/a deg
peri 353.52645 n/a deg
M 143.34281 n/a deg
tp 2455626.9333247
(2011-Mar-06.43332470)
n/a JED
period 1942.7831999
5.32
n/a
n/a
d
yr
n 0.18530117 n/a deg/d
Q 3.3809748 n/a AU
  Orbit Determination Parameters
   # obs. used (total)      569  
   first obs. used      1979-??-??  
   last obs. used      2013-03-18  
   # oppositions      15  
   planetary ephem.      DE403  
   condition code      0  
   fit RMS      0.54  
   data source      MPC:mpn  
   producer      MPCLINUX  

Additional Information
 T_jup = 3.181 

Ephemeris | Orbit Diagram | Orbital Elements | Physical Parameters | Discovery Circumstances ]

Physical Parameter Table
Parameter Symbol Value Units Sigma Reference Notes
absolute magnitude H 13.1 mag n/a PDS3 (MPO 1743)  

15941 Stevegauthier           Discovered 1997 Dec. 29 by Spacewatch at Kitt Peak.
Steven Maurice Gauthier (b. 1957) is a Canadian amateur astronomer who studied data processing at Conestoga College. A participant in the Puckett Observatory Supernova Search, he discovered supernovae 2000fd, 2002bu, and 2002bz. The name was suggested by R. Jedicke and P. Jedicke.
NOTE: some special characters may not display properly (any characters within {} are an attempt to place the proper accent above a character)
Reference: 20050523/MPCPages.arcLast Updated: 2005-07-21

Alternate Designations
 1997 YX15 = 1979 OD12 = 1995 LP 
Ephemeris | Orbit Diagram | Orbital Elements | Physical Parameters | Discovery Circumstances ]
ABOUT SSD CREDITS/AWARDS PRIVACY/COPYRIGHT GLOSSARY LINKS
FirstGov 2013-Jun-19 13:41 UT
(server date/time)  
NASA Home Page
Site Manager:   Donald K. Yeomans
Webmaster  Alan B. Chamberlin